Change the Weather History Date:

Saturday, March 30, 2013

  Actual Average Record
Temperature  
Mean Temperature 33 °F 33 °F  
Max Temperature 39 °F 43 °F 68 °F (1967)
Min Temperature 26 °F 23 °F -15 °F (1975)
Degree Days  
Heating Degree Days 32 32  
Month to date heating degree days 1525 1205  
Since 1 July heating degree days 8526 8355  
Cooling Degree Days 0 0  
Month to date cooling degree days 0 0  
Year to date cooling degree days 0 0  
Moisture  
Dew Point 28 °F    
Average Humidity 85    
Maximum Humidity 100    
Minimum Humidity 70    
Precipitation  
Precipitation 0.00 in 0.03 in 0.46 in (2006)
Month to date precipitation 0.98 0.93  
Year to date precipitation 1.77 2.00  
Snow  
Snow 0.00 in 0.20 in - ()
Month to date snowfall 13.6 7.1  
Since 1 July snowfall 43.5 44.3  
Snow Depth 8.00 in    
Sea Level Pressure  
Sea Level Pressure 29.93 in    
Wind  
Wind Speed 6 mph (West)    
Max Wind Speed 14 mph    
Max Gust Speed 16 mph    
Visibility 5 miles    
Events Fog    
T = Trace of Precipitation, MM = Missing Value Source: NWS Daily Summary

Daily Weather History Graph

Daily Weather History Graph

Search for Another Location

Airport or City:

Trip Planner

Search our weather history database for the weather conditions in past years. The results will help you decide how hot, cold, wet, or windy it might be!

Date:

Astronomy

Mar. 30, 2013 Rise Set
Actual Time 7:10 AM CDT 7:56 PM CDT
Civil Twilight 6:39 AM CDT 8:27 PM CDT
Nautical Twilight 6:01 AM CDT 9:05 PM CDT
Astronomical Twilight 5:22 AM CDT 9:44 PM CDT
Moon No Moon Rise 8:49 AM CDT (3/30)
Length of Visible Light 13h 48m
Length of Day
12h 45m
Waning Gibbous, 86% of the Moon is Illuminated
Mar 30
Waning Gibbous
Apr 2
Last Quarter
Apr 10
New
Apr 18
First Quarter
Apr 25
Full

Hourly Weather History & Observations

Time (CDT) Temp. Windchill Dew Point Humidity Pressure Visibility Wind Dir Wind Speed Gust Speed Precip Events Conditions
12:20 AM 30.2 °F - 28.4 °F 93% 29.95 in 1.2 mi Calm Calm - N/A   Overcast
12:53 AM 30.9 °F - 28.9 °F 92% 29.99 in 1.5 mi Calm Calm - N/A   Overcast
1:43 AM 30.2 °F - 28.4 °F 93% 29.94 in 2.0 mi Calm Calm - N/A   Overcast
1:53 AM 30.9 °F - 30.0 °F 96% 29.97 in 2.0 mi Calm Calm - N/A   Overcast
2:21 AM 30.2 °F - 30.2 °F 100% 29.93 in 2.0 mi Calm Calm - N/A   Overcast
2:28 AM 30.2 °F - 28.4 °F 93% 29.92 in 2.0 mi Calm Calm - N/A   Overcast
2:44 AM 30.2 °F 26.7 °F 28.4 °F 93% 29.91 in 2.0 mi SSE 3.5 mph - N/A   Overcast
2:53 AM 30.9 °F - 28.9 °F 92% 29.96 in 2.0 mi Calm Calm - N/A   Overcast
3:03 AM 30.2 °F - 28.4 °F 93% 29.91 in 1.8 mi Calm Calm - N/A   Overcast
3:21 AM 30.2 °F - 28.4 °F 93% 29.91 in 2.0 mi Calm Calm - N/A   Overcast
3:37 AM 28.4 °F - 28.4 °F 100% 29.91 in 1.5 mi Calm Calm - N/A   Mostly Cloudy
3:53 AM 28.0 °F - 26.1 °F 92% 29.94 in 1.2 mi Calm Calm - N/A   Partly Cloudy
4:01 AM 28.4 °F - 26.6 °F 93% 29.90 in 0.8 mi Calm Calm - N/A   Mostly Cloudy
4:20 AM 26.6 °F - 26.6 °F 100% 29.90 in 0.2 mi Calm Calm - N/A Fog Light Freezing Fog
4:32 AM 28.4 °F - 26.6 °F 93% 29.91 in 0.5 mi Calm Calm - N/A Fog Light Freezing Fog
4:53 AM 28.9 °F - 28.0 °F 96% 29.94 in 0.5 mi Calm Calm - N/A Fog Light Freezing Fog
5:03 AM 28.4 °F - 26.6 °F 93% 29.90 in 0.2 mi Calm Calm - N/A Fog Light Freezing Fog
5:12 AM 28.4 °F - 26.6 °F 93% 29.90 in 1.0 mi Calm Calm - N/A   Overcast
5:21 AM 26.6 °F 22.6 °F 26.6 °F 100% 29.90 in 0.2 mi SSW 3.5 mph - N/A Fog Light Freezing Fog
5:33 AM 26.6 °F 21.2 °F 24.8 °F 93% 29.90 in 0.2 mi SSW 4.6 mph - N/A Fog Light Freezing Fog
5:53 AM 28.0 °F 24.2 °F 27.0 °F 96% 29.94 in 0.2 mi WSW 3.5 mph - N/A Fog Light Freezing Fog
6:04 AM 28.4 °F 23.3 °F 28.4 °F 100% 29.90 in 1.0 mi West 4.6 mph - N/A   Overcast
6:23 AM 30.2 °F 26.7 °F 28.4 °F 93% 29.90 in 2.0 mi West 3.5 mph - N/A   Overcast
6:53 AM 30.9 °F 25.2 °F 28.9 °F 92% 29.94 in 3.0 mi West 5.8 mph - N/A   Overcast
7:53 AM 28.9 °F 21.9 °F 27.0 °F 92% 29.95 in 5.0 mi NW 6.9 mph - N/A   Partly Cloudy
8:53 AM 30.9 °F 25.2 °F 28.0 °F 89% 29.95 in 6.0 mi WNW 5.8 mph - N/A   Partly Cloudy
9:53 AM 33.1 °F 26.1 °F 28.9 °F 85% 29.96 in 7.0 mi WNW 8.1 mph - N/A   Clear
10:53 AM 35.1 °F 27.9 °F 28.9 °F 78% 29.95 in 9.0 mi WNW 9.2 mph - N/A   Clear
11:53 AM 37.0 °F 28.9 °F 28.9 °F 73% 29.96 in 10.0 mi NW 12.7 mph - N/A   Partly Cloudy
12:53 PM 37.0 °F 28.9 °F 28.9 °F 73% 29.97 in 10.0 mi NNW 12.7 mph - N/A   Partly Cloudy
1:53 PM 37.9 °F 32.1 °F 28.0 °F 68% 29.95 in 10.0 mi NNW 8.1 mph - N/A   Partly Cloudy
2:53 PM 37.9 °F 32.1 °F 28.9 °F 70% 29.96 in 10.0 mi WNW 8.1 mph - N/A   Scattered Clouds
3:53 PM 37.9 °F 32.1 °F 30.0 °F 73% 29.96 in 10.0 mi WNW 8.1 mph - N/A   Partly Cloudy
4:53 PM 39.0 °F 34.8 °F 30.0 °F 70% 29.94 in 10.0 mi WNW 5.8 mph - N/A   Partly Cloudy
5:53 PM 37.9 °F 30.9 °F 30.0 °F 73% 29.94 in 10.0 mi WNW 10.4 mph - N/A   Scattered Clouds
6:53 PM 35.1 °F 27.9 °F 30.9 °F 85% 29.94 in 9.0 mi West 9.2 mph - N/A   Overcast
7:53 PM 34.0 °F 26.6 °F 30.0 °F 85% 29.93 in 10.0 mi WNW 9.2 mph - N/A   Overcast
8:53 PM 34.0 °F 28.8 °F 30.0 °F 85% 29.91 in 10.0 mi WNW 5.8 mph - N/A   Overcast
9:45 PM 33.8 °F 30.8 °F 30.2 °F 87% 29.87 in 10.0 mi West 3.5 mph - N/A   Overcast
9:53 PM 33.1 °F 28.7 °F 30.0 °F 89% 29.90 in 10.0 mi West 4.6 mph - N/A   Overcast
10:53 PM 33.1 °F 30.0 °F 30.0 °F 89% 29.89 in 10.0 mi West 3.5 mph - N/A   Overcast
11:53 PM 32.0 °F 26.4 °F 28.9 °F 88% 29.87 in 10.0 mi SW 5.8 mph - N/A   Overcast